Starlink 33584

operational
NORAD ID: 62761 Int'l Des: 2025-015 Owner: SPXS Country: US Constellation: starlink
LEOCIRCULAR

Starlink 33584について

説明を読み込み中...

リアルタイム位置

3D地球を読み込み中...

次回通過

高度履歴

Altitude vs Time

uPlot chart will show altitude changes over time

軌道要素

1 62761U 25015D 26036.56398188 .00054722 00000-0 18440-2 0 9999
2 62761 53.1575 111.6013 0000379 116.6743 243.4297 15.30238494 59565
Epoch: Feb 5, 2026 • Age: 18 hours

現在のステータス

高度 474.9 km
速度 7.63 km/s
衛星直下点 16.73°N, 26.69°E
打ち上げ日 Jan 21, 2025
運用期間 1 years
タイプ internet

技術仕様

分類 Payload
質量 575.00 kg
乾燥質量 530.00 kg
総質量 575.00 kg
長さ 0.30 m
直径 4.10 m
スパン 29.00 m
形状 Box + pan
製造者 SPXS
バスタイプ Starlink V2MO
フェーズステータス In Orbit
所有者/国 SPXS/US

大規模コンステレーション

Loading constellations...